owner,sensor,date,latitude,longitude,vertical_datum,wind_speed,wind_to_direction,wind_speed_of_gust,qcFlag 
TCOON,ioos:station:TCOON:057:1,2019-12-01T00:18:00Z,28.4460,-96.3961,0.0,7.3,189.0,8.6,'11111222,11111222,11111222' 
TCOON,ioos:station:TCOON:057:1,2019-12-01T01:18:00Z,28.4460,-96.3961,0.0,7.0,193.0,8.1,'11111222,11111222,11111222' 
TCOON,ioos:station:TCOON:057:1,2019-12-01T02:18:00Z,28.4460,-96.3961,0.0,7.0,196.0,8.2,'11111222,11111222,11111222' 
TCOON,ioos:station:TCOON:057:1,2019-12-01T03:18:00Z,28.4460,-96.3961,0.0,5.7,206.0,7.0,'11111222,11111222,11111222' 
TCOON,ioos:station:TCOON:057:1,2019-12-01T04:18:00Z,28.4460,-96.3961,0.0,4.8,221.0,5.7,'11111222,11111222,11111222' 
TCOON,ioos:station:TCOON:057:1,2019-12-01T05:18:00Z,28.4460,-96.3961,0.0,5.3,224.0,6.1,'11111222,11111222,11111222' 
TCOON,ioos:station:TCOON:057:1,2019-12-01T06:18:00Z,28.4460,-96.3961,0.0,5.4,239.0,6.2,'11111222,11111222,11111222' 
TCOON,ioos:station:TCOON:057:1,2019-12-01T07:18:00Z,28.4460,-96.3961,0.0,3.4,321.0,4.2,'11111222,11111222,11111222' 
TCOON,ioos:station:TCOON:057:1,2019-12-01T08:18:00Z,28.4460,-96.3961,0.0,10.9,13.0,14.9,'11111222,11111222,11111222' 
TCOON,ioos:station:TCOON:057:1,2019-12-01T09:18:00Z,28.4460,-96.3961,0.0,12.2,6.0,13.7,'11111222,11111222,11111222' 
TCOON,ioos:station:TCOON:057:1,2019-12-01T10:24:00Z,28.4460,-96.3961,0.0,10.6,9.0,12.8,'11111222,11111222,11111222' 
TCOON,ioos:station:TCOON:057:1,2019-12-01T11:18:00Z,28.4460,-96.3961,0.0,10.9,8.0,14.2,'11111222,11111222,11111222' 
TCOON,ioos:station:TCOON:057:1,2019-12-01T12:18:00Z,28.4460,-96.3961,0.0,11.5,2.0,13.1,'11111222,11111222,11111222' 
TCOON,ioos:station:TCOON:057:1,2019-12-01T13:24:00Z,28.4460,-96.3961,0.0,11.4,355.0,13.9,'11111222,11111222,11111222' 
TCOON,ioos:station:TCOON:057:1,2019-12-01T14:18:00Z,28.4460,-96.3961,0.0,11.6,347.0,13.5,'11111222,11111222,11111222' 
TCOON,ioos:station:TCOON:057:1,2019-12-01T15:18:00Z,28.4460,-96.3961,0.0,12.0,352.0,13.4,'11111222,11111222,11111222' 
TCOON,ioos:station:TCOON:057:1,2019-12-01T16:18:00Z,28.4460,-96.3961,0.0,9.8,1.0,11.2,'11111222,11111222,11111222' 
TCOON,ioos:station:TCOON:057:1,2019-12-01T17:18:00Z,28.4460,-96.3961,0.0,9.6,359.0,11.3,'11111222,11111222,11111222' 
TCOON,ioos:station:TCOON:057:1,2019-12-01T18:18:00Z,28.4460,-96.3961,0.0,8.9,352.0,10.0,'11111222,11111222,11111222' 
TCOON,ioos:station:TCOON:057:1,2019-12-01T19:18:00Z,28.4460,-96.3961,0.0,9.1,6.0,10.6,'11111222,11111222,11111222' 
TCOON,ioos:station:TCOON:057:1,2019-12-01T20:18:00Z,28.4460,-96.3961,0.0,7.5,345.0,8.8,'11111222,11111222,11111222' 
TCOON,ioos:station:TCOON:057:1,2019-12-01T21:18:00Z,28.4460,-96.3961,0.0,6.6,5.0,7.9,'11111222,11111222,11111222' 
TCOON,ioos:station:TCOON:057:1,2019-12-01T22:18:00Z,28.4460,-96.3961,0.0,7.6,344.0,8.8,'11111222,11111222,11111222' 
TCOON,ioos:station:TCOON:057:1,2019-12-01T23:18:00Z,28.4460,-96.3961,0.0,6.9,350.0,8.5,'11111222,11111222,11111222' 
TCOON,ioos:station:TCOON:057:1,2019-12-02T00:18:00Z,28.4460,-96.3961,0.0,7.6,357.0,8.5,'11111222,11111222,11111222' 
TCOON,ioos:station:TCOON:057:1,2019-12-02T01:18:00Z,28.4460,-96.3961,0.0,7.0,352.0,8.3,'11111222,11111222,11111222' 
TCOON,ioos:station:TCOON:057:1,2019-12-02T02:18:00Z,28.4460,-96.3961,0.0,7.9,1.0,9.7,'11111222,11111222,11111222' 
TCOON,ioos:station:TCOON:057:1,2019-12-02T03:18:00Z,28.4460,-96.3961,0.0,6.0,359.0,7.0,'11111222,11111222,11111222' 
TCOON,ioos:station:TCOON:057:1,2019-12-02T04:18:00Z,28.4460,-96.3961,0.0,6.1,1.0,7.5,'11111222,11111222,11111222' 
TCOON,ioos:station:TCOON:057:1,2019-12-02T05:18:00Z,28.4460,-96.3961,0.0,6.2,359.0,6.8,'11111222,11111222,11111222' 
TCOON,ioos:station:TCOON:057:1,2019-12-02T06:18:00Z,28.4460,-96.3961,0.0,6.6,358.0,7.8,'11111222,11111222,11111222' 
TCOON,ioos:station:TCOON:057:1,2019-12-02T07:18:00Z,28.4460,-96.3961,0.0,7.4,358.0,8.1,'11111222,11111222,11111222' 
TCOON,ioos:station:TCOON:057:1,2019-12-02T08:18:00Z,28.4460,-96.3961,0.0,9.9,1.0,11.3,'11111222,11111222,11111222' 
TCOON,ioos:station:TCOON:057:1,2019-12-02T09:18:00Z,28.4460,-96.3961,0.0,9.6,2.0,11.6,'11111222,11111222,11111222' 
TCOON,ioos:station:TCOON:057:1,2019-12-02T10:18:00Z,28.4460,-96.3961,0.0,9.2,1.0,10.4,'11111222,11111222,11111222' 
TCOON,ioos:station:TCOON:057:1,2019-12-02T11:18:00Z,28.4460,-96.3961,0.0,8.8,357.0,10.3,'11111222,11111222,11111222' 
TCOON,ioos:station:TCOON:057:1,2019-12-02T12:18:00Z,28.4460,-96.3961,0.0,9.0,355.0,10.0,'11111222,11111222,11111222' 
TCOON,ioos:station:TCOON:057:1,2019-12-02T13:18:00Z,28.4460,-96.3961,0.0,8.3,1.0,10.0,'11111222,11111222,11111222' 
TCOON,ioos:station:TCOON:057:1,2019-12-02T14:18:00Z,28.4460,-96.3961,0.0,6.7,3.0,8.9,'11111222,11111222,11111222' 
TCOON,ioos:station:TCOON:057:1,2019-12-02T15:18:00Z,28.4460,-96.3961,0.0,7.7,4.0,9.3,'11111222,11111222,11111222' 
TCOON,ioos:station:TCOON:057:1,2019-12-02T16:18:00Z,28.4460,-96.3961,0.0,8.6,3.0,10.0,'11111222,11111222,11111222' 
TCOON,ioos:station:TCOON:057:1,2019-12-02T17:18:00Z,28.4460,-96.3961,0.0,7.8,355.0,9.7,'11111222,11111222,11111222' 
TCOON,ioos:station:TCOON:057:1,2019-12-02T18:18:00Z,28.4460,-96.3961,0.0,8.4,359.0,9.4,'11111222,11111222,11111222' 
TCOON,ioos:station:TCOON:057:1,2019-12-02T19:18:00Z,28.4460,-96.3961,0.0,8.0,5.0,9.2,'11111222,11111222,11111222' 
TCOON,ioos:station:TCOON:057:1,2019-12-02T20:18:00Z,28.4460,-96.3961,0.0,5.9,3.0,6.8,'11111222,11111222,11111222' 
TCOON,ioos:station:TCOON:057:1,2019-12-02T21:18:00Z,28.4460,-96.3961,0.0,4.4,4.0,5.6,'11111222,11111222,11111222' 
TCOON,ioos:station:TCOON:057:1,2019-12-02T22:18:00Z,28.4460,-96.3961,0.0,4.2,11.0,5.1,'11111222,11111222,11111222' 
TCOON,ioos:station:TCOON:057:1,2019-12-02T23:18:00Z,28.4460,-96.3961,0.0,4.4,16.0,5.2,'11111222,11111222,11111222' 
TCOON,ioos:station:TCOON:057:1,2019-12-03T00:18:00Z,28.4460,-96.3961,0.0,1.7,355.0,2.3,'11111222,11111222,11111222' 
TCOON,ioos:station:TCOON:057:1,2019-12-03T01:18:00Z,28.4460,-96.3961,0.0,4.0,21.0,4.5,'11111222,11111222,11111222' 
TCOON,ioos:station:TCOON:057:1,2019-12-03T02:18:00Z,28.4460,-96.3961,0.0,3.7,38.0,4.6,'11111222,11111222,11111222' 
TCOON,ioos:station:TCOON:057:1,2019-12-03T03:18:00Z,28.4460,-96.3961,0.0,2.9,51.0,3.3,'11111222,11111222,11111222' 
TCOON,ioos:station:TCOON:057:1,2019-12-03T04:18:00Z,28.4460,-96.3961,0.0,2.9,49.0,3.4,'11111222,11111222,11111222' 
TCOON,ioos:station:TCOON:057:1,2019-12-03T05:18:00Z,28.4460,-96.3961,0.0,2.8,52.0,3.1,'11111222,11111222,11111222' 
TCOON,ioos:station:TCOON:057:1,2019-12-03T06:18:00Z,28.4460,-96.3961,0.0,2.3,64.0,2.7,'11111222,11111222,11111222' 
TCOON,ioos:station:TCOON:057:1,2019-12-03T07:18:00Z,28.4460,-96.3961,0.0,2.3,82.0,2.8,'11111222,11111222,11111222' 
TCOON,ioos:station:TCOON:057:1,2019-12-03T08:18:00Z,28.4460,-96.3961,0.0,2.4,108.0,3.0,'11111222,11111222,11111222' 
TCOON,ioos:station:TCOON:057:1,2019-12-03T09:18:00Z,28.4460,-96.3961,0.0,2.2,105.0,2.7,'11111222,11111222,11111222' 
TCOON,ioos:station:TCOON:057:1,2019-12-03T10:18:00Z,28.4460,-96.3961,0.0,2.2,99.0,2.7,'11111222,11111222,11111222' 
TCOON,ioos:station:TCOON:057:1,2019-12-03T11:18:00Z,28.4460,-96.3961,0.0,2.2,97.0,2.8,'11111222,11111222,11111222' 
TCOON,ioos:station:TCOON:057:1,2019-12-03T12:18:00Z,28.4460,-96.3961,0.0,2.2,113.0,2.6,'11111222,11111222,11111222' 
TCOON,ioos:station:TCOON:057:1,2019-12-03T13:18:00Z,28.4460,-96.3961,0.0,2.6,135.0,2.9,'11111222,11111222,11111222' 
TCOON,ioos:station:TCOON:057:1,2019-12-03T14:18:00Z,28.4460,-96.3961,0.0,1.2,125.0,1.5,'11111222,11111222,11111222' 
TCOON,ioos:station:TCOON:057:1,2019-12-03T15:18:00Z,28.4460,-96.3961,0.0,1.5,121.0,2.1,'11111222,11111222,11111222' 
TCOON,ioos:station:TCOON:057:1,2019-12-03T16:18:00Z,28.4460,-96.3961,0.0,1.6,170.0,1.8,'11111222,11111222,11111222' 
TCOON,ioos:station:TCOON:057:1,2019-12-03T17:18:00Z,28.4460,-96.3961,0.0,2.3,162.0,2.7,'11111222,11111222,11111222' 
TCOON,ioos:station:TCOON:057:1,2019-12-03T18:18:00Z,28.4460,-96.3961,0.0,2.0,140.0,2.7,'11111222,11111222,11111222' 
TCOON,ioos:station:TCOON:057:1,2019-12-03T19:18:00Z,28.4460,-96.3961,0.0,4.0,164.0,4.5,'11111222,11111222,11111222' 
TCOON,ioos:station:TCOON:057:1,2019-12-03T20:18:00Z,28.4460,-96.3961,0.0,4.1,185.0,4.7,'11111222,11111222,11111222' 
TCOON,ioos:station:TCOON:057:1,2019-12-03T21:18:00Z,28.4460,-96.3961,0.0,5.3,211.0,7.2,'11111222,11111222,11111222' 
TCOON,ioos:station:TCOON:057:1,2019-12-03T22:24:00Z,28.4460,-96.3961,0.0,5.3,182.0,7.2,'11111222,11111222,11111222' 
TCOON,ioos:station:TCOON:057:1,2019-12-03T23:18:00Z,28.4460,-96.3961,0.0,3.2,182.0,4.2,'11111222,11111222,11111222' 
TCOON,ioos:station:TCOON:057:1,2019-12-04T00:18:00Z,28.4460,-96.3961,0.0,2.6,190.0,3.2,'11111222,11111222,11111222' 
TCOON,ioos:station:TCOON:057:1,2019-12-04T01:18:00Z,28.4460,-96.3961,0.0,2.0,188.0,2.3,'11111222,11111222,11111222' 
TCOON,ioos:station:TCOON:057:1,2019-12-04T02:18:00Z,28.4460,-96.3961,0.0,2.1,187.0,2.3,'11111222,11111222,11111222' 
TCOON,ioos:station:TCOON:057:1,2019-12-04T03:18:00Z,28.4460,-96.3961,0.0,1.5,171.0,1.7,'11111222,11111222,11111222' 
TCOON,ioos:station:TCOON:057:1,2019-12-04T04:18:00Z,28.4460,-96.3961,0.0,2.3,171.0,2.4,'11111222,11111222,11111222' 
TCOON,ioos:station:TCOON:057:1,2019-12-04T05:18:00Z,28.4460,-96.3961,0.0,3.1,197.0,3.4,'11111222,11111222,11111222' 
TCOON,ioos:station:TCOON:057:1,2019-12-04T06:18:00Z,28.4460,-96.3961,0.0,1.9,209.0,2.5,'11111222,11111222,11111222' 
TCOON,ioos:station:TCOON:057:1,2019-12-04T07:18:00Z,28.4460,-96.3961,0.0,1.9,221.0,2.0,'11111222,11111222,11111222' 
TCOON,ioos:station:TCOON:057:1,2019-12-04T08:18:00Z,28.4460,-96.3961,0.0,1.2,190.0,1.4,'11111222,11111222,11111222' 
TCOON,ioos:station:TCOON:057:1,2019-12-04T09:18:00Z,28.4460,-96.3961,0.0,1.2,332.0,1.4,'11111222,11111222,11111222' 
TCOON,ioos:station:TCOON:057:1,2019-12-04T10:18:00Z,28.4460,-96.3961,0.0,1.8,329.0,2.2,'11111222,11111222,11111222' 
TCOON,ioos:station:TCOON:057:1,2019-12-04T11:18:00Z,28.4460,-96.3961,0.0,3.8,337.0,4.4,'11111222,11111222,11111222' 
TCOON,ioos:station:TCOON:057:1,2019-12-04T12:18:00Z,28.4460,-96.3961,0.0,1.1,6.0,1.3,'11111222,11111222,11111222' 
TCOON,ioos:station:TCOON:057:1,2019-12-04T13:18:00Z,28.4460,-96.3961,0.0,1.2,53.0,1.5,'11111222,11111222,11111222' 
TCOON,ioos:station:TCOON:057:1,2019-12-04T14:18:00Z,28.4460,-96.3961,0.0,0.2,88.0,0.5,'11111222,11111222,11111222' 
TCOON,ioos:station:TCOON:057:1,2019-12-04T15:18:00Z,28.4460,-96.3961,0.0,4.4,22.0,5.2,'11111222,11111222,11111222' 
TCOON,ioos:station:TCOON:057:1,2019-12-04T16:18:00Z,28.4460,-96.3961,0.0,2.4,46.0,3.2,'11111222,11111222,11111222' 
TCOON,ioos:station:TCOON:057:1,2019-12-04T17:18:00Z,28.4460,-96.3961,0.0,3.7,49.0,4.4,'11111222,11111222,11111222' 
TCOON,ioos:station:TCOON:057:1,2019-12-04T18:18:00Z,28.4460,-96.3961,0.0,2.3,68.0,2.5,'11111222,11111222,11111222' 
TCOON,ioos:station:TCOON:057:1,2019-12-04T19:48:00Z,28.4460,-96.3961,0.0,1.7,137.0,1.9,'11111222,11111222,11111222' 
TCOON,ioos:station:TCOON:057:1,2019-12-04T20:18:00Z,28.4460,-96.3961,0.0,2.1,140.0,2.4,'11111222,11111222,11111222' 
 
DISCLAIMER: The Gulf of Mexico Coastal and Ocean Observing (GCOOS) Data Portal aggregates data from the regional data providers for the convenience of all data users. Data published on this website should not be used for navigation or certain other uses as we cannot guarantee data accuracy or availability. The data and delivery services are provided 'as is' without warranty of any kind. Data Source: Gulf of Mexico Coastal Ocean Observing System Data Portal (http://data.gcoos.org/) 
